San Antonio, TX

10:39 AM CDT on May 22, 2017 (GMT -0500)
San Antonio International

Weather History for KSAT - November, 2013

Change the Weather History Date:

Wednesday, November 6, 2013

  Actual Average Record
Temperature  
Mean Temperature 68 °F 65 °F  
Max Temperature 78 °F 76 °F 91 °F (1996)
Min Temperature 57 °F 54 °F 32 °F (1970)
Degree Days  
Heating Degree Days 0 4  
Month to date heating degree days 5 19  
Since 1 July heating degree days 16 52  
Cooling Degree Days 3 3  
Month to date cooling degree days 18 22  
Year to date cooling degree days 3451 3077  
Growing Degree Days 18 (Base 50)    
Moisture  
Dew Point 59 °F    
Average Humidity 72    
Maximum Humidity 93    
Minimum Humidity 51    
Precipitation  
Precipitation 0.34 in 0.08 in 0.99 in (1889)
Month to date precipitation 0.37 0.55  
Year to date precipitation 30.32 28.63  
Snow  
Snow 0.00 in - - ()
Month to date snowfall 0.0  
Since 1 July snowfall 0.0  
Since 1 September snowfall 0.0  
Snow Depth 0.00 in    
Sea Level Pressure  
Sea Level Pressure 30.10 in    
Wind  
Wind Speed 9 mph (North)    
Max Wind Speed 25 mph    
Max Gust Speed 31 mph    
Visibility 10 miles    
Events Rain    
T = Trace of Precipitation, MM = Missing Value Source: NWS Daily Summary

Daily Weather History Graph

Daily Weather History Graph

Search for Another Location

Airport or City:

Trip Planner

Search our weather history database for the weather conditions in past years. The results will help you decide how hot, cold, wet, or windy it might be!

Date:

Astronomy

Nov. 06, 2013 Rise Set
Actual Time 6:51 AM CST 5:43 PM CST
Civil Twilight 6:26 AM CST 6:08 PM CST
Nautical Twilight 5:57 AM CST 6:36 PM CST
Astronomical Twilight 5:29 AM CST 7:04 PM CST
Moon 10:01 AM CST (11/6) 8:54 PM CST (11/6)
Length of Visible Light 11h 42m
Length of Day
10h 52m
Waxing Crescent, 14% of the Moon is Illuminated
Nov 6
Waxing Crescent
Nov 9
First Quarter
Nov 17
Full
Nov 25
Last Quarter
Dec 2
New

Hourly Weather History & Observations

Time (CST) Temp. Dew Point Humidity Pressure Visibility Wind Dir Wind Speed Gust Speed Precip Events Conditions
12:30 AM 75.2 °F 69.8 °F 83% 29.99 in 10.0 mi SSE 13.8 mph - N/A   Overcast
12:51 AM 75.0 °F 70.0 °F 84% 29.94 in 10.0 mi South 10.4 mph 19.6 mph N/A   Overcast
1:51 AM 75.0 °F 70.0 °F 84% 29.94 in 10.0 mi South 9.2 mph - N/A   Overcast
2:51 AM 75.0 °F 70.0 °F 84% 29.94 in 10.0 mi South 6.9 mph - N/A   Overcast
3:51 AM 75.0 °F 70.0 °F 84% 29.96 in 10.0 mi South 5.8 mph - N/A   Overcast
4:51 AM 73.9 °F 70.0 °F 87% 29.97 in 10.0 mi Calm Calm - N/A   Overcast
5:51 AM 73.0 °F 70.0 °F 90% 29.97 in 10.0 mi Calm Calm - 0.02 in   Overcast
5:58 AM 73.4 °F 69.8 °F 88% 30.02 in 10.0 mi Calm Calm - 0.00 in Rain Light Rain
6:51 AM 73.0 °F 70.0 °F 90% 30.00 in 9.0 mi Calm Calm - 0.00 in   Mostly Cloudy
7:51 AM 73.0 °F 71.1 °F 93% 30.02 in 10.0 mi Calm Calm - N/A   Clear
8:51 AM 75.0 °F 71.1 °F 87% 30.04 in 10.0 mi Calm Calm - N/A   Mostly Cloudy
9:51 AM 77.0 °F 70.0 °F 79% 30.07 in 10.0 mi Calm Calm - N/A   Mostly Cloudy
10:33 AM 69.8 °F 62.6 °F 78% 30.13 in 10.0 mi NNW 19.6 mph 24.2 mph 0.00 in Rain Light Rain
10:42 AM 68.0 °F 60.8 °F 78% 30.14 in 8.0 mi North 20.7 mph 27.6 mph 0.00 in Rain Light Rain
10:51 AM 64.0 °F 60.1 °F 87% 30.11 in 5.0 mi NNW 16.1 mph 28.8 mph 0.13 in Rain Heavy Rain
11:27 AM 64.4 °F 60.8 °F 88% 30.15 in 10.0 mi North 18.4 mph 24.2 mph 0.19 in Rain Light Rain
11:51 AM 66.0 °F 59.0 °F 78% 30.11 in 10.0 mi North 13.8 mph 23.0 mph 0.19 in   Mostly Cloudy
12:51 PM 66.0 °F 57.0 °F 73% 30.10 in 10.0 mi North 13.8 mph 25.3 mph N/A   Mostly Cloudy
1:51 PM 66.9 °F 57.9 °F 73% 30.10 in 10.0 mi North 16.1 mph 21.9 mph N/A   Mostly Cloudy
2:51 PM 66.9 °F 53.1 °F 61% 30.10 in 10.0 mi North 18.4 mph 25.3 mph N/A   Scattered Clouds
3:51 PM 66.0 °F 51.1 °F 59% 30.12 in 10.0 mi North 15.0 mph 27.6 mph N/A   Scattered Clouds
4:51 PM 64.9 °F 50.0 °F 58% 30.14 in 10.0 mi North 11.5 mph 18.4 mph N/A   Mostly Cloudy
5:51 PM 63.0 °F 48.0 °F 58% 30.17 in 10.0 mi NNE 17.3 mph 24.2 mph N/A   Mostly Cloudy
6:51 PM 62.1 °F 46.0 °F 56% 30.19 in 10.0 mi NNE 10.4 mph 18.4 mph N/A   Partly Cloudy
7:51 PM 61.0 °F 46.0 °F 58% 30.21 in 10.0 mi NNE 9.2 mph - N/A   Partly Cloudy
8:51 PM 60.1 °F 43.0 °F 53% 30.25 in 10.0 mi NNE 9.2 mph 16.1 mph N/A   Scattered Clouds
9:51 PM 59.0 °F 42.1 °F 53% 30.27 in 10.0 mi North 9.2 mph - N/A   Scattered Clouds
10:51 PM 57.0 °F 41.0 °F 55% 30.29 in 10.0 mi NNE 4.6 mph - N/A   Scattered Clouds
11:51 PM 57.9 °F 39.9 °F 51% 30.29 in 10.0 mi North 11.5 mph - N/A   Scattered Clouds